This is the latest recevied weather packets stored in our database for station/object KK7RJD. If no packets are shown the sender has not sent any weather packets the latest 10 day(s).
| Time | Temp. | Humidity | Pressure | Rain* | Wind** | Luminosity | Snow |
|---|---|---|---|---|---|---|---|
| 1777852235 | 23.33° C | 21% | 1009.2 hPa | 0 mm | - | 155 W/m² | - |
| 1777851933 | 23.33° C | 23% | 1009.1 hPa | 0 mm | - | 320 W/m² | - |
| 1777851631 | 23.33° C | 23% | 1009.2 hPa | 0 mm | - | 333 W/m² | - |
| 1777851327 | 23.33° C | 22% | 1009.3 hPa | 0 mm | - | 343 W/m² | - |
| 1777851023 | 22.78° C | 25% | 1009.3 hPa | 0 mm | - | 373 W/m² | - |
| 1777850720 | 22.78° C | 22% | 1009.5 hPa | 0 mm | - | 386 W/m² | - |
| 1777850418 | 22.78° C | 24% | 1009.4 hPa | 0 mm | - | 410 W/m² | - |
| 1777850116 | 22.78° C | 24% | 1009.4 hPa | 0 mm | - | 428 W/m² | - |
| 1777849812 | 23.33° C | 25% | 1009.7 hPa | 0 mm | - | 438 W/m² | - |
| 1777849509 | 22.78° C | 22% | 1009.5 hPa | 0 mm | - | 448 W/m² | - |
| 1777849206 | 23.33° C | 25% | 1009.7 hPa | 0 mm | - | 469 W/m² | - |
| 1777848903 | 22.78° C | 24% | 1009.7 hPa | 0 mm | - | 483 W/m² | - |
| 1777848598 | 22.78° C | 22% | 1009.6 hPa | 0 mm | - | 500 W/m² | - |
| 1777848295 | 22.78° C | 24% | 1009.5 hPa | 0 mm | - | 519 W/m² | - |
| 1777847993 | 22.78° C | 25% | 1010 hPa | 0 mm | - | 535 W/m² | - |
| 1777847691 | 22.78° C | 24% | 1009.9 hPa | 0 mm | - | 551 W/m² | - |
| 1777847386 | 22.78° C | 23% | 1009.9 hPa | 0 mm | - | 564 W/m² | - |
| 1777847085 | 23.33° C | 24% | 1010.1 hPa | 0 mm | - | 172 W/m² | - |
| 1777846783 | 23.33° C | 24% | 1010.2 hPa | 0 mm | - | 599 W/m² | - |
| 1777846481 | 23.33° C | 23% | 1010 hPa | 0 mm | - | 616 W/m² | - |
| 1777846177 | 23.33° C | 24% | 1010.2 hPa | 0 mm | - | 627 W/m² | - |
| 1777845874 | 22.78° C | 26% | 1010.4 hPa | 0 mm | - | 643 W/m² | - |
| 1777845571 | 22.78° C | 24% | 1010.4 hPa | 0 mm | - | 658 W/m² | - |
| 1777845268 | 22.78° C | 26% | 1010.5 hPa | 0 mm | - | 671 W/m² | - |
| 1777844965 | 22.78° C | 26% | 1010.7 hPa | 0 mm | - | 687 W/m² | - |
* Rain latest hour (hover to see other rain measurements)
** Current wind speed in m/s (hover to see current wind gust speed)